BEIDOU-3 M26 (C48)

Last updated on Sat Aug 15 2026 00:03:26 GMT+0000 (Coordinated Universal Time)

1 58655U 23207B 26225.55130956 -.00000036 00000+0 00000+0 0 9992 2 58655 55.8094 60.3559 0000932 312.4309 47.6247 1.86229635 17893
UTC large
Height (km)
Speed (km/s)
/
Latitude / Longitude
Inclination (degrees)
Orbital Period (minutes)
Azimuth
Elevation
Range (km)
Doppler Factor

Next 0 passes for location: London (51.5072 / 0.1276)

No passes found over London.
BEIDOU-3 M26 (C48)